Location: Unspecified
(0.0000°N, 0.0000°E)
Time: 17:48:05
(UTC+00:00)

STARLINK 1067 - Pass Details

Date: 24 January 2020
Orbit: 549 x 550 km, 53.0° (Epoch: 22 January)

Event Time Altitude Azimuth Distance (km) Brightness Sun altitude
Exits shadow 05:12:21 13° 336° (NNW) 1,631 5.6 -14.0°
Drops below altitude 10° 05:13:07 10° 346° (NNW) 1,807 5.9 -13.9°
Sets 05:16:00 0° 7° (N) 2,697 7.0 -13.2°
